sat.trackr.live / text

‹ back to catalog

STARLINK-3714

NORAD 52094 · 2022-029G

PAYLOAD ACTIVE UNKNOWN

§ Identity

Operator
Country
US
Launch date
2022-03-19
Launch site
AFETR
Launch vehicle
Mass (kg)
RCS (m²)

Purposes: comms

External: N2YO · Heavens-Above · Gunter

§ Orbital elements

Epoch: 2026-09-18T19:15:38.669760Z

Period
93.85 min
Inclination
53.1587°
Eccentricity
0.0001276
Mean motion
15.34383757 rev/d
Perigee alt
461.9 km
Apogee alt
463.6 km
Semi-major
6,840.9 km
B*
3.1006e-6
RAAN
289.3072°
Arg perigee
90.8448°
Mean anomaly
269.2701°
Rev number
24,998

§ Raw data

STARLINK-37141 52094U 22029G   26261.80253090 -.00000272  00000+0  31006-5 0  99952 52094  53.1587 289.3072 0001276  90.8448 269.2701 15.34383757249986

JSON: /api/v1/satellites/52094 · /tle

For live sub-satellite position, see the globe view (requires WebGL).

§ Visibility from observer

Set your observer location to see the next 7 days of passes ≥ 10°. The values pass through the URL so the page stays shareable.

No JS? Fill the form by hand. The geolocation button needs JavaScript.